Date String (YYYY-MM-DD hh:mm:ss) UTC,Instrument flags,Ambient pressure (hPa),Sample flow (lpm),Bypass flow (lpm),Sample temperature (°C),Ambient temperature (°C),ASC tube jacket temperature (°C),LED temperature (°C),Box temperature (°C),Sample RH (%),Span deviation,Mass concentration (μg/m³),Mass concentration (μg/m³),Mass concentration (μg/m³)
DateTimeUTC,F1_M11,P_M11,Q1_M11,Q2_M11,T1_M11,T2_M11,T3_M11,T4_M11,T5_M11,U1_M11,ZSPAN_M11,X0_M11,X2_M11,X1_M11
2022-12-18 19:00:00,,0819.4,5.02,0.00,22.7,21.4,00.0,31.5,24.5,07.7,0000.0,0017.17,0004.27,0003.54
2022-12-18 19:01:00,,0819.2,4.95,0.00,22.7,21.4,00.0,31.5,24.5,07.5,0000.0,0017.22,0004.30,0003.53
2022-12-18 19:02:00,,0819.3,5.04,0.00,22.7,21.4,00.0,31.5,24.5,07.6,0000.0,0017.02,0004.37,0003.53
2022-12-18 19:03:00,,0819.3,5.01,0.00,22.7,21.5,00.0,31.5,24.6,07.7,0000.0,0016.30,0004.39,0003.54
2022-12-18 19:04:00,,0819.3,4.98,0.00,22.7,21.5,00.0,31.5,24.6,07.7,0000.0,0014.82,0004.40,0003.55
2022-12-18 19:05:00,,0819.3,5.04,0.00,22.7,21.4,00.0,31.5,24.6,07.7,0000.0,0013.26,0004.39,0003.57
2022-12-18 19:06:00,,0819.3,4.96,0.00,22.7,21.4,00.0,31.5,24.6,07.6,0000.0,0012.46,0004.40,0003.58
2022-12-18 19:07:00,,0819.3,5.03,0.00,22.7,21.4,00.0,31.5,24.6,07.6,0000.0,0011.67,0004.41,0003.59
2022-12-18 19:08:00,,0819.3,4.96,0.00,22.7,21.4,00.0,31.5,24.6,07.6,0001.1,0011.84,0004.41,0003.60
2022-12-18 19:09:00,,0819.3,5.03,0.00,22.7,21.5,00.0,31.5,24.6,07.7,0000.4,0011.05,0004.40,0003.59
2022-12-18 19:10:00,,0819.2,5.01,0.00,22.7,21.5,00.0,31.5,24.6,07.7,0000.0,0009.59,0004.37,0003.60
2022-12-18 19:11:00,,0819.2,4.97,0.00,22.7,21.5,00.0,31.5,24.6,07.6,0000.0,0009.42,0004.37,0003.60
2022-12-18 19:12:00,,0819.2,5.02,0.00,22.7,21.5,00.0,31.5,24.6,07.5,0000.0,0009.29,0004.36,0003.59
2022-12-18 19:13:00,,0819.3,4.96,0.00,22.8,21.5,00.0,31.6,24.6,07.5,0000.0,0009.99,0004.30,0003.59
2022-12-18 19:14:00,,0819.2,5.02,0.00,22.8,21.6,00.0,31.6,24.6,07.5,0000.0,0010.10,0004.26,0003.58
2022-12-18 19:15:00,,0819.2,5.01,0.00,22.8,21.6,00.0,31.6,24.6,07.4,0000.0,0010.03,0004.26,0003.57
2022-12-18 19:16:00,,0819.3,4.96,0.00,22.8,21.6,00.0,31.6,24.6,07.4,0000.0,0010.44,0004.29,0003.55
2022-12-18 19:17:00,,0819.3,5.04,0.00,22.8,21.6,00.0,31.6,24.6,07.5,0000.7,0010.63,0004.29,0003.54
2022-12-18 19:18:00,,0819.3,4.96,0.00,22.8,21.6,00.0,31.6,24.6,07.0,0000.9,0010.78,0004.25,0003.50
2022-12-18 19:19:00,,0819.3,5.04,0.00,22.8,21.6,00.0,31.6,24.6,07.0,0000.0,0011.09,0004.21,0003.46
2022-12-18 19:20:00,,0819.3,5.01,0.00,22.8,21.6,00.0,31.6,24.6,06.9,0000.0,0010.52,0004.16,0003.41
2022-12-18 19:21:00,,0819.3,4.97,0.00,22.9,21.7,00.0,31.6,24.6,07.0,0000.0,0010.41,0004.10,0003.36
2022-12-18 19:22:00,,0819.2,5.03,0.00,22.9,21.7,00.0,31.6,24.7,06.7,0000.0,0010.31,0004.04,0003.31
2022-12-18 19:23:00,,0819.2,4.99,0.00,22.9,21.7,00.0,31.6,24.7,06.6,0000.0,0010.26,0003.98,0003.26
2022-12-18 19:24:00,,0819.1,4.97,0.00,22.9,21.7,00.0,31.6,24.7,06.6,0000.0,0010.32,0003.96,0003.21
2022-12-18 19:25:00,,0819.1,5.03,0.00,22.9,21.7,00.0,31.6,24.7,06.5,0000.0,0009.94,0003.93,0003.17
2022-12-18 19:26:00,,0819.1,4.96,0.00,22.9,21.7,00.0,31.7,24.7,06.6,0000.0,0010.73,0003.85,0003.12
2022-12-18 19:27:00,,0819.1,5.02,0.00,22.9,21.7,00.0,31.7,24.7,06.7,0000.0,0010.96,0003.77,0003.06
2022-12-18 19:28:00,,0819.1,5.03,0.00,22.9,21.7,00.0,31.7,24.8,06.7,0000.0,0010.90,0003.72,0003.00
2022-12-18 19:29:00,,0819.1,4.95,0.00,23.0,21.7,00.0,31.7,24.8,06.6,0000.0,0010.59,0003.69,0002.95
2022-12-18 19:30:00,,0819.1,5.02,0.00,23.0,21.8,00.0,31.7,24.8,06.4,0000.0,0009.96,0003.62,0002.90
2022-12-18 19:31:00,,0819.1,5.01,0.00,23.0,21.8,00.0,31.7,24.8,06.3,0000.0,0009.53,0003.56,0002.83
2022-12-18 19:32:00,,0819.1,4.96,0.00,23.0,21.8,00.0,31.7,24.8,06.0,0000.0,0010.23,0003.52,0002.74
2022-12-18 19:33:00,,0819.0,5.04,0.00,23.0,21.8,00.0,31.7,24.8,05.9,0000.0,0010.76,0003.45,0002.64
2022-12-18 19:34:00,,0819.0,4.98,0.00,23.0,21.8,00.0,31.7,24.9,06.0,0000.0,0010.65,0003.37,0002.56
2022-12-18 19:35:00,,0819.0,5.01,0.00,23.0,21.9,00.0,31.8,24.9,06.2,0000.0,0009.97,0003.30,0002.50
2022-12-18 19:36:00,,0819.0,5.02,0.00,23.1,21.9,00.0,31.8,24.9,06.1,0000.0,0009.73,0003.26,0002.44
2022-12-18 19:37:00,,0819.0,4.95,0.00,23.1,21.9,00.0,31.8,24.9,06.2,0000.0,0008.75,0003.21,0002.38
2022-12-18 19:38:00,,0819.0,5.03,0.00,23.1,21.9,00.0,31.8,24.9,06.2,0000.0,0008.04,0003.18,0002.32
2022-12-18 19:39:00,,0819.0,5.02,0.00,23.1,21.9,00.0,31.8,24.9,06.2,0000.0,0007.63,0003.12,0002.27
2022-12-18 19:40:00,,0819.0,4.96,0.00,23.1,21.9,00.0,31.8,24.9,06.1,0000.0,0007.75,0003.12,0002.23
2022-12-18 19:41:00,,0819.0,5.03,0.00,23.1,21.9,00.0,31.8,24.9,06.2,0000.0,0008.37,0003.13,0002.21
2022-12-18 19:42:00,,0818.9,4.98,0.00,23.1,21.9,00.0,31.8,24.9,06.3,0000.0,0009.42,0003.12,0002.23
2022-12-18 19:43:00,,0818.9,4.99,0.00,23.1,21.9,00.0,31.9,24.9,06.4,0000.0,0008.82,0003.13,0002.28
2022-12-18 19:44:00,,0818.9,5.04,0.00,23.1,21.9,00.0,31.9,24.9,06.3,0000.0,0008.16,0003.16,0002.35
2022-12-18 19:45:00,,0818.9,4.95,0.00,23.1,21.9,00.0,31.9,24.9,06.4,0000.0,0008.14,0003.22,0002.40
2022-12-18 19:46:00,,0818.9,5.03,0.00,23.2,21.9,00.0,31.9,24.9,06.4,0000.0,0008.29,0003.26,0002.44
2022-12-18 19:47:00,,0818.9,5.02,0.00,23.2,21.9,00.0,31.9,25.0,06.4,0000.0,0008.32,0003.29,0002.47
2022-12-18 19:48:00,,0818.9,4.96,0.00,23.2,22.0,00.0,31.9,25.0,06.4,0000.0,0008.49,0003.31,0002.50
2022-12-18 19:49:00,,0818.9,5.03,0.00,23.2,22.0,00.0,31.9,25.0,06.4,0000.0,0009.38,0003.32,0002.53
2022-12-18 19:50:00,,0818.9,5.01,0.00,23.2,22.0,00.0,31.9,25.0,06.4,0000.0,0010.28,0003.31,0002.52
2022-12-18 19:51:00,,0818.9,4.96,0.00,23.2,22.0,00.0,31.9,25.0,06.5,0000.0,0010.38,0003.29,0002.54
2022-12-18 19:52:00,,0818.9,5.03,0.00,23.2,22.0,00.0,31.9,25.0,06.4,0000.0,0010.49,0003.30,0002.56
2022-12-18 19:53:00,,0818.9,4.97,0.00,23.2,22.0,00.0,32.0,25.0,06.4,0000.0,0009.64,0003.32,0002.57
2022-12-18 19:54:00,,0818.9,5.01,0.00,23.2,22.0,00.0,32.0,25.0,06.5,0000.0,0009.86,0003.33,0002.58
2022-12-18 19:55:00,,0819.0,5.05,0.00,23.2,22.0,00.0,32.0,25.0,06.5,0000.0,0010.17,0003.34,0002.59
2022-12-18 19:56:00,,0818.9,4.95,0.00,23.3,22.0,00.0,32.0,25.0,06.4,0000.0,0010.13,0003.34,0002.58
2022-12-18 19:57:00,,0819.0,5.03,0.00,23.3,22.0,00.0,32.0,25.0,06.4,0000.0,0009.99,0003.32,0002.58
2022-12-18 19:58:00,,0818.9,5.02,0.00,23.3,22.0,00.0,32.0,25.0,06.4,0000.0,0010.29,0003.28,0002.59
2022-12-18 19:59:00,,0818.9,4.98,0.00,23.3,22.0,00.0,32.0,25.0,06.3,0000.0,0010.28,0003.25,0002.60
